Wind_Speed
40 39 38 40 43 42 40 39 41 42 44 45 45 44 41 38 33 36 39 37 36 37 38 40 39 40 38 38 37 37 37 38 39 40 40 39 41 41 43 46 47 47 50
45 46 45 42 44 46 44 43 42 43 44 43 46 48 47 39 37 38 38 38 36 37 37 40 41 40 41 40 39 39 39 40 41 41 43 44 43 45 47 49 50 51 51
55 53 54 51 47 48 48 45 44 43 44 44 44 49 47 41 43 40 38 39 38 39 37 36 38 40 42 43 42 42 42 42 43 44 46 47 47 47 49 50 52 53 55
57 56 57 57 55 50 51 50 48 47 45 46 46 44 46 46 43 41 40 40 39 40 40 37 39 41 44 45 45 45 46 45 45 46 49 49 51 52 51 52 52 54 56
57 57 57 58 58 56 54 55 53 51 50 45 45 45 43 42 42 40 41 40 42 40 38 39 41 41 44 45 46 46 47 47 48 49 49 49 51 53 55 54 55 58 59
58 59 60 58 60 59 56 55 55 51 50 47 45 47 43 38 39 40 40 41 40 40 38 38 40 41 43 44 45 45 47 48 49 50 50 50 52 55 57 58 58 58 57
51 59 61 62 60 60 57 54 54 52 50 47 45 47 42 40 39 41 42 39 39 39 39 38 40 42 44 45 46 47 48 48 49 50 49 50 54 56 59 61 63 63 61
51 51 52 59 62 60 57 54 55 52 51 45 44 46 43 41 39 41 41 40 39 40 41 40 42 43 44 45 47 48 48 48 48 49 51 54 56 59 61 63 65 65 65
57 56 53 47 57 58 58 54 56 53 50 45 44 45 44 42 40 40 40 39 40 40 41 41 41 44 44 46 47 48 47 47 48 51 54 57 59 60 62 65 66 70 71
54 57 56 51 43 48 57 54 56 53 49 45 46 46 44 43 40 37 38 40 39 40 41 41 41 42 43 45 46 46 46 49 51 54 57 59 61 62 64 66 69 70 72
58 56 56 56 45 45 53 52 55 54 49 46 44 46 44 42 39 38 38 39 39 40 40 41 42 43 44 45 45 46 48 51 55 57 59 61 63 64 67 68 70 71 73
42 46 53 50 43 47 51 51 51 52 48 46 46 45 45 42 38 38 38 38 38 39 40 41 42 44 46 45 46 48 51 54 57 58 60 63 65 67 68 71 71 72 73
38 37 38 41 42 51 49 47 47 49 47 46 45 45 44 40 38 38 38 38 39 41 41 42 43 46 45 45 48 51 54 56 58 61 63 65 66 68 70 71 72 73 76
24 33 34 38 44 50 44 42 45 48 47 44 45 44 42 40 37 35 37 39 41 42 42 42 45 45 45 47 50 53 55 57 61 63 64 65 68 69 70 72 74 76 80
28 30 40 41 41 44 39 42 44 46 44 42 43 41 40 37 33 35 37 39 41 41 42 45 44 44 46 50 53 54 57 60 61 63 66 67 69 70 71 73 77 82 87
18 21 28 32 39 37 40 42 42 40 39 39 38 39 37 32 32 35 36 38 38 41 44 42 42 45 49 52 53 56 59 61 62 64 66 68 69 70 73 77 83 88 94
19 27 27 33 33 33 35 37 38 38 37 34 33 32 30 31 33 34 35 35 41 40 40 42 45 48 49 53 55 57 58 61 63 66 67 68 70 74 78 83 91 96 103
22 24 27 28 28 28 30 32 32 30 26 24 24 28 29 33 32 30 36 38 37 38 41 43 45 48 51 54 55 57 60 62 65 65 66 70 75 79 85 90 96 102 106
22 23 23 21 21 22 24 21 20 20 20 19 24 27 31 28 32 32 32 34 38 39 40 43 47 50 51 53 56 58 61 62 62 65 70 74 78 84 92 101 104 103 88
20 19 19 18 17 15 13 13 14 21 22 27 25 30 26 27 28 31 34 33 35 38 43 45 47 49 52 55 57 60 60 60 64 70 75 80 86 92 100 104 98 80 63
18 20 21 21 21 23 22 24 25 25 26 25 24 23 25 28 27 27 30 34 38 40 42 45 48 51 53 56 57 58 60 64 68 74 79 86 92 98 102 91 72 55 42
14 12 16 18 18 18 19 20 20 20 20 20 20 19 19 21 25 30 32 35 38 41 45 47 49 52 54 53 55 58 64 69 73 79 85 91 97 97 82 62 45 43 43
7 9 13 13 12 13 13 14 14 12 10 11 13 17 21 24 27 30 34 38 41 43 44 48 50 51 51 54 58 63 68 72 78 84 90 96 91 73 51 41 41 43 46
5 6 7 9 8 7 6 5 5 6 9 11 15 19 22 26 30 34 37 39 40 43 45 47 47 49 53 57 61 66 71 77 83 88 94 85 64 42 37 40 44 45 45
2 4 4 3 3 3 1 2 5 8 11 15 19 23 27 30 33 34 36 39 42 44 44 45 48 52 56 62 66 70 76 83 90 91 78 55 35 34 38 40 41 41 42
3 2 2 2 2 1 4 6 10 13 17 21 24 27 30 30 32 36 38 41 42 42 44 48 52 57 62 66 70 76 83 90 90 71 49 29 29 33 33 33 34 37 40
Wind_Direction
268 263 256 252 246 245 250 252 253 248 252 253 254 256 259 261 262 263 264 267 270 264 266 262 260 261 264 268 271 274 276 280 284 286 289 292 293 293 295 296 295 294 295
263 263 261 255 250 246 245 247 251 251 251 254 255 257 256 260 262 262 266 269 270 265 264 262 259 262 263 267 270 274 278 281 285 288 290 291 292 296 298 297 295 297 297
260 255 254 253 248 244 243 243 247 252 250 250 253 256 260 257 259 263 268 267 267 266 264 265 268 269 266 267 271 275 279 282 285 287 289 290 293 295 296 296 296 298 298
259 255 254 254 252 246 242 240 242 247 247 246 248 256 257 255 257 262 267 267 266 267 268 268 270 270 270 270 272 277 280 282 284 286 289 290 293 294 293 294 295 296 297
258 255 251 250 251 250 244 241 240 243 247 245 245 250 257 258 255 259 263 265 264 266 267 267 269 272 272 273 274 276 280 282 284 286 288 290 293 293 294 296 298 299 300
257 254 251 247 247 248 247 244 242 240 243 244 242 246 251 257 255 256 263 265 266 266 269 270 272 273 274 275 276 278 280 283 286 287 288 291 292 294 296 297 298 299 299
262 254 250 249 244 245 246 243 240 239 239 242 238 242 248 254 255 256 260 264 268 268 270 272 272 274 276 277 279 280 282 284 285 286 289 293 295 296 298 299 299 300 299
263 266 260 250 245 241 242 240 236 235 235 239 237 239 245 251 257 257 259 265 265 267 272 275 276 277 277 281 282 284 284 284 285 289 293 295 297 298 299 300 300 299 299
260 258 260 258 246 240 237 236 233 231 231 234 235 237 242 247 253 255 259 266 266 269 272 275 276 278 281 283 285 285 284 286 289 293 295 297 299 300 301 301 300 300 301
262 253 248 245 252 238 233 232 229 229 228 231 232 236 240 243 250 253 259 264 266 269 271 274 277 281 284 286 285 284 287 290 293 295 298 299 300 302 301 301 301 302 303
256 246 243 240 239 241 226 226 227 226 225 229 231 234 238 241 247 251 257 262 265 267 271 275 279 283 287 286 286 288 291 294 296 299 300 301 302 302 302 302 303 304 304
253 246 240 233 233 229 218 220 222 223 222 225 229 234 237 240 247 252 258 263 267 269 273 279 283 286 288 287 289 292 295 297 300 300 301 302 302 303 303 304 305 305 305
258 242 234 235 229 220 210 212 216 217 219 223 228 233 237 240 246 252 258 264 268 272 279 283 285 287 286 289 292 295 298 300 300 301 302 303 303 304 305 306 306 306 306
252 234 225 222 217 213 200 206 208 211 216 220 227 232 236 241 248 256 262 267 271 276 281 284 286 285 288 292 295 297 299 300 301 303 303 303 305 306 307 307 307 307 308
254 238 218 216 210 197 194 201 202 208 212 218 226 232 238 245 253 261 267 270 273 278 282 283 283 288 291 294 297 298 298 301 302 303 304 306 307 307 307 309 309 308 307
240 216 206 196 192 184 192 196 201 205 210 218 225 233 242 252 260 265 269 272 276 279 280 282 287 291 294 296 296 299 301 302 303 305 306 307 307 308 309 310 311 310 309
148 165 171 176 176 182 190 195 200 205 212 220 229 237 247 255 262 266 272 278 276 277 282 286 290 292 294 296 299 301 302 304 306 307 308 309 309 310 310 311 311 311 311
128 143 160 167 171 181 189 194 202 209 217 224 233 249 256 261 267 271 268 273 278 281 286 289 292 293 297 300 302 303 305 307 308 309 309 310 310 311 313 314 315 312 308
134 141 147 155 169 180 188 193 199 208 217 232 243 241 258 260 263 269 273 276 280 284 291 292 294 298 300 302 304 306 307 308 309 310 309 310 312 312 313 316 315 313 311
119 119 124 131 138 151 164 179 200 212 214 215 246 255 258 261 266 271 274 282 290 289 293 297 298 301 304 306 306 308 309 309 310 311 312 313 313 313 316 315 314 313 311
144 152 157 159 167 175 186 199 209 223 230 235 242 251 258 264 270 283 288 288 292 296 298 299 303 304 305 306 308 310 310 311 313 313 313 313 314 316 315 315 314 314 312
151 163 164 169 177 189 200 207 217 224 229 234 243 256 273 284 286 288 292 295 296 298 301 303 304 305 307 309 310 311 312 314 315 314 313 315 316 316 315 315 315 316 316
146 161 191 187 202 206 204 201 207 219 241 261 277 285 285 289 293 295 296 296 300 302 303 304 306 309 310 311 313 314 315 316 317 316 316 317 316 315 315 316 318 318 319
124 141 130 140 156 167 183 212 247 275 281 292 294 294 296 296 295 296 298 301 302 303 306 308 309 310 312 313 314 315 315 317 317 318 317 316 316 317 318 321 323 324 323
160 161 156 158 154 146 176 302 306 309 309 306 301 299 297 298 300 301 302 304 306 308 309 310 312 313 314 314 314 314 316 319 319 319 316 317 318 321 326 329 330 329 328
223 230 226 178 140 6 327 324 318 310 305 304 303 301 301 302 304 305 307 309 309 310 312 313 314 314 315 316 315 317 319 320 319 317 318 317 322 330 336 341 346 346 342
Height
5729 5729 5731 5734 5738 5741 5743 5744 5744 5747 5748 5750 5752 5754 5756 5758 5760 5760 5759 5760 5761 5760 5760 5760 5761 5760 5760 5760 5759 5758 5757 5755 5753 5751 5749 5747 5745 5743 5740 5737 5735 5733 5729
5718 5719 5720 5724 5727 5731 5734 5735 5736 5739 5741 5743 5745 5745 5747 5754 5753 5752 5752 5754 5753 5752 5752 5752 5752 5752 5752 5752 5752 5750 5749 5747 5745 5742 5740 5738 5737 5732 5729 5727 5724 5721 5718
5703 5704 5704 5708 5713 5717 5722 5725 5728 5730 5734 5735 5736 5736 5741 5745 5745 5746 5746 5747 5746 5744 5744 5745 5744 5745 5744 5744 5744 5742 5741 5739 5736 5734 5731 5729 5726 5724 5721 5717 5712 5709 5704
5688 5692 5694 5697 5700 5705 5710 5715 5717 5720 5722 5725 5727 5730 5733 5736 5739 5739 5739 5740 5740 5738 5737 5738 5737 5737 5737 5736 5735 5734 5732 5730 5727 5725 5721 5718 5715 5712 5711 5707 5703 5698 5693
5673 5677 5681 5683 5687 5691 5696 5701 5705 5709 5712 5716 5720 5722 5724 5727 5732 5732 5732 5732 5732 5730 5731 5731 5730 5730 5729 5728 5727 5725 5723 5720 5717 5714 5712 5709 5705 5701 5697 5695 5689 5683 5678
5655 5660 5664 5669 5674 5677 5682 5689 5694 5699 5703 5707 5710 5713 5716 5721 5723 5724 5724 5724 5725 5724 5724 5723 5722 5721 5720 5719 5717 5715 5713 5710 5707 5704 5701 5697 5694 5689 5684 5680 5676 5672 5667
5639 5644 5648 5652 5659 5664 5669 5677 5683 5689 5693 5698 5701 5703 5709 5712 5713 5715 5716 5717 5717 5717 5717 5716 5715 5713 5712 5711 5708 5706 5704 5701 5697 5694 5690 5686 5682 5677 5671 5665 5661 5657 5652
5626 5629 5633 5637 5642 5650 5656 5664 5670 5676 5683 5688 5692 5695 5701 5704 5706 5707 5709 5710 5710 5709 5709 5708 5706 5705 5704 5702 5699 5697 5694 5691 5687 5683 5679 5674 5669 5663 5658 5651 5645 5642 5636
5610 5613 5619 5622 5628 5636 5643 5651 5658 5665 5672 5678 5682 5688 5691 5695 5698 5699 5700 5702 5702 5701 5701 5700 5699 5698 5695 5693 5690 5687 5684 5680 5676 5672 5667 5662 5656 5650 5644 5637 5630 5623 5617
5590 5596 5603 5607 5614 5619 5629 5637 5646 5655 5662 5668 5674 5680 5683 5686 5690 5692 5693 5693 5694 5693 5693 5692 5691 5689 5686 5684 5681 5678 5674 5670 5665 5660 5654 5648 5643 5636 5630 5623 5615 5607 5599
5569 5577 5584 5591 5599 5606 5615 5625 5635 5645 5653 5659 5667 5671 5675 5679 5682 5683 5685 5686 5686 5686 5685 5685 5683 5680 5677 5674 5671 5668 5663 5658 5653 5647 5642 5635 5629 5622 5615 5607 5599 5591 5582
5551 5558 5566 5576 5585 5592 5603 5614 5625 5637 5645 5651 5657 5663 5668 5671 5674 5676 5678 5678 5678 5678 5677 5676 5674 5671 5668 5665 5661 5657 5652 5647 5641 5635 5628 5621 5614 5607 5599 5591 5583 5573 5564
5541 5546 5553 5562 5573 5582 5592 5605 5617 5628 5637 5643 5650 5656 5661 5664 5666 5668 5669 5671 5671 5671 5669 5667 5664 5661 5658 5655 5651 5646 5640 5635 5628 5622 5614 5607 5600 5592 5583 5574 5565 5556 5546
5534 5539 5546 5554 5563 5575 5587 5600 5611 5620 5629 5637 5643 5649 5654 5657 5659 5662 5663 5663 5663 5662 5660 5658 5655 5652 5649 5644 5640 5634 5628 5622 5615 5608 5601 5593 5585 5576 5567 5558 5548 5537 5527
5528 5533 5540 5550 5560 5573 5585 5597 5606 5616 5624 5631 5637 5644 5648 5651 5654 5655 5656 5656 5655 5654 5652 5649 5645 5643 5639 5634 5629 5623 5616 5610 5603 5595 5587 5578 5570 5561 5551 5541 5531 5518 5506
5524 5531 5539 5552 5564 5572 5584 5594 5603 5613 5620 5627 5634 5638 5642 5647 5648 5649 5649 5648 5647 5646 5643 5640 5637 5633 5628 5623 5617 5610 5604 5597 5589 5582 5573 5564 5555 5545 5535 5523 5511 5497 5482
5527 5537 5545 5557 5566 5576 5586 5595 5604 5611 5618 5624 5630 5635 5639 5641 5641 5641 5641 5641 5640 5637 5634 5631 5627 5622 5617 5611 5605 5598 5591 5584 5575 5566 5557 5548 5538 5527 5517 5505 5492 5477 5459
5542 5548 5555 5564 5572 5581 5589 5596 5603 5611 5618 5624 5628 5631 5633 5634 5634 5634 5634 5633 5631 5628 5625 5621 5616 5611 5605 5599 5593 5586 5578 5570 5561 5552 5542 5532 5522 5510 5498 5485 5470 5454 5435
5555 5559 5565 5572 5579 5586 5592 5599 5605 5612 5617 5621 5624 5626 5627 5629 5628 5628 5627 5625 5623 5619 5615 5611 5606 5600 5594 5588 5581 5573 5566 5557 5548 5538 5527 5517 5505 5492 5479 5463 5446 5428 5409
5564 5569 5574 5579 5584 5590 5595 5600 5606 5609 5613 5615 5617 5622 5622 5622 5622 5621 5619 5616 5613 5610 5605 5600 5595 5589 5582 5576 5568 5560 5552 5544 5536 5525 5511 5498 5485 5470 5453 5436 5419 5405 5392
5574 5577 5581 5586 5590 5595 5599 5604 5608 5610 5613 5615 5616 5616 5617 5616 5615 5613 5611 5608 5604 5600 5595 5591 5585 5578 5572 5564 5556 5548 5539 5529 5520 5507 5494 5480 5464 5447 5429 5412 5398 5388 5381
5578 5581 5583 5587 5591 5595 5598 5601 5604 5606 5608 5610 5611 5611 5610 5609 5608 5605 5602 5599 5595 5591 5585 5579 5573 5566 5559 5552 5544 5535 5525 5514 5503 5490 5476 5460 5443 5425 5408 5396 5386 5379 5371
5582 5583 5586 5589 5592 5595 5597 5599 5602 5604 5604 5605 5605 5605 5604 5602 5600 5598 5594 5590 5586 5580 5575 5569 5562 5554 5547 5539 5530 5521 5510 5499 5487 5472 5456 5440 5423 5408 5396 5387 5379 5371 5363
5586 5588 5589 5591 5593 5595 5597 5598 5599 5600 5601 5600 5600 5599 5598 5596 5593 5590 5585 5581 5576 5571 5565 5558 5551 5544 5536 5527 5518 5507 5495 5483 5470 5455 5437 5419 5405 5396 5389 5380 5372 5363 5355
5587 5589 5590 5591 5592 5593 5595 5596 5596 5596 5596 5596 5595 5593 5591 5588 5585 5581 5576 5571 5566 5560 5554 5548 5540 5532 5524 5515 5504 5492 5480 5467 5451 5435 5417 5404 5396 5389 5382 5373 5365 5357 5348
5588 5588 5589 5590 5591 5592 5593 5593 5593 5593 5592 5591 5589 5586 5584 5580 5576 5572 5567 5562 5557 5551 5544 5537 5529 5520 5510 5500 5489 5476 5461 5446 5430 5415 5404 5397 5391 5384 5377 5368 5360 5352 5343